Flag for Germany Weather past 2 weeks in Emden, Lower Saxony, Germany

Now
60 °F

Sunny.


Feels Like: 59 °F
Forecast: 52 / 63 °F
Wind: 6 mph from Southwest

Location: Emden-Koenigspolder

Current Time: Sep 2, 2015 at 10:53:51 AM

Latest Report: Sep 2, 2015 at 10:00 AM


Visibility: 7 mi

Pressure: 29.93 "Hg

Humidity: 76%

Dew point: 52 °F

Location of EmdenLocation

Historic Weather in Emden — Graph

°F

Emden temperature yesterday

Maximum temperature yesterday: 67 °F (at 1:00 AM)
Minimum temperature yesterday: 57 °F (at 11:00 PM)
Average temperature yesterday: 62 °F

Past Weeks' High & Low Weather Summary

 TemperatureHumidityPressure
High78 °F (Aug 31, 6:00 PM)100% (Aug 20, 1:00 AM)30.25 "Hg (Aug 20, 1:00 AM)
Low52 °F (Aug 23, 6:00 AM)40% (Aug 22, 2:00 PM)29.47 "Hg (Aug 24, 6:00 PM)
Average63 °F80%29.95 "Hg
* Reported Aug 18 9:00 AM — Sep 2 9:00 AM, Emden, Weather by CustomWeather, © 2015

Note: Actual official high and low records may vary slightly from our data, if they occured in-between our weather recording intervals... More about our weather records

Advertising

Emden weather history for previous 24 hours

 ConditionsComfort  
Time TempWeatherWind HumidityBarometerVisibility
9:00 AM
Wed, Sep 2
57 °FSunny.6 mph83%29.92 "Hg9 mi
8:00 AM55 °FSunny.6 mph82%29.92 "Hg15 mi
7:00 AM54 °FSunny.5 mph85%29.92 "Hg31 mi
5:00 AM55 °FPassing clouds.5 mph82%29.93 "Hg25 mi
4:00 AM55 °FPassing clouds.5 mph83%29.93 "Hg40 mi
3:00 AM56 °FPassing clouds.5 mph83%29.93 "Hg25 mi
2:00 AM57 °FOvercast.5 mph83%29.93 "Hg22 mi
1:00 AM57 °FPassing clouds.5 mph84%29.93 "Hg25 mi
11:00 PM
Tue, Sep 1
57 °FPassing clouds.6 mph84%29.93 "Hg25 mi
10:00 PM57 °FClear.5 mph84%29.93 "Hg28 mi
9:00 PM58 °FPassing clouds.5 mph81%29.92 "Hg18 mi
8:00 PM60 °FScattered clouds.7 mph76%29.90 "Hg19 mi
7:00 PM62 °FOvercast.8 mph70%29.90 "Hg14 mi
6:00 PM62 °FOvercast.9 mph70%29.89 "Hg19 mi
5:00 PM62 °FOvercast.9 mph70%29.88 "Hg22 mi
4:00 PM63 °FOvercast.8 mph76%29.87 "Hg17 mi
3:00 PM63 °FOvercast.8 mph74%29.85 "Hg14 mi
2:00 PM63 °FOvercast.8 mph76%29.85 "Hg15 mi
1:00 PM62 °FOvercast.8 mph76%29.83 "Hg16 mi
12:00 PM63 °FOvercast.6 mph78%29.82 "Hg16 mi
10:00 AM62 °FLow clouds.6 mph85%29.80 "Hg11 mi
Weather by CustomWeather, © 2015

See weather overviewHow to use our weather pages